• In Italy
  • List of Countries
  • For 7 days
  • Water Temperature
  • Satellite Maps
  • Weather Map
  • Weather Widgets
  • user-avatar
    Login

    Hourly Weather La Massana

    Today, 20 September, Thursday

    Time Temperature Precipitation Wind Pressure Humidity
    00:00 +10°C° 0 mm 1 mps 615 mmHg 74%
    01:00 +10°C° 0 mm 1 mps 615 mmHg 72%
    02:00 +10°C° 0 mm 1 mps 615 mmHg 69%
    03:00 +10°C° 0 mm 1 mps 615 mmHg 67%
    04:00 +10°C° 0 mm 1 mps 615 mmHg 65%
    05:00 +9°C° 0 mm 1 mps 615 mmHg 63%
    06:00 +9°C° 0 mm 1 mps 615 mmHg 61%
    07:00 +12°C° 0 mm 1 mps 616 mmHg 53%
    08:00 +15°C° 0 mm 1 mps 617 mmHg 46%
    09:00 +17°C° 0 mm 0 mps 619 mmHg 38%
    10:00 +21°C° 0 mm 1 mps 619 mmHg 36%
    11:00 +22°C° 0 mm 1 mps 619 mmHg 34%
    12:00 +23°C° 0 mm 1 mps 619 mmHg 32%
    13:00 +23°C° 0 mm 1 mps 619 mmHg 33%
    14:00 +21°C° 0 mm 2 mps 618 mmHg 34%
    15:00 +21°C° 0 mm 2 mps 618 mmHg 35%
    16:00 +20°C° 0 mm 1 mps 617 mmHg 44%
    17:00 +16°C° 0 mm 1 mps 616 mmHg 52%
    18:00 +14°C° 0 mm 1 mps 614 mmHg 60%
    19:00 +13°C° 0 mm 1 mps 614 mmHg 63%
    20:00 +13°C° 0 mm 1 mps 614 mmHg 65%
    21:00 +12°C° 0 mm 1 mps 614 mmHg 67%
    22:00 +12°C° 0 mm 1 mps 614 mmHg 68%
    23:00 +12°C° 0 mm 1 mps 614 mmHg 68%

    Tomorrow, 21 September, Friday

    Time Temperature Precipitation Wind Pressure Humidity
    00:00 +12°C° 0 mm 1 mps 614 mmHg 69%
    01:00 +11°C° 0 mm 1 mps 614 mmHg 68%
    02:00 +11°C° 0 mm 1 mps 614 mmHg 68%
    03:00 +11°C° 0 mm 1 mps 613 mmHg 68%
    04:00 +11°C° 0 mm 1 mps 614 mmHg 68%
    05:00 +11°C° 0 mm 1 mps 614 mmHg 68%
    06:00 +11°C° 0 mm 1 mps 614 mmHg 68%
    07:00 +13°C° 0 mm 1 mps 615 mmHg 62%
    08:00 +15°C° 0 mm 1 mps 617 mmHg 56%
    09:00 +19°C° 0 mm 1 mps 618 mmHg 50%
    10:00 +19°C° 0 mm 1 mps 618 mmHg 48%
    11:00 +20°C° 0 mm 1 mps 618 mmHg 46%
    12:00 +20°C° 0 mm 2 mps 619 mmHg 44%
    13:00 +20°C° 0 mm 2 mps 618 mmHg 46%
    14:00 +19°C° 0 mm 2 mps 618 mmHg 47%
    15:00 +20°C° 0 mm 1 mps 618 mmHg 49%
    16:00 +19°C° 0 mm 1 mps 617 mmHg 56%
    17:00 +16°C° 0 mm 1 mps 617 mmHg 63%
    18:00 +14°C° 0 mm 1 mps 616 mmHg 70%
    19:00 +14°C° 0 mm 1 mps 616 mmHg 74%
    20:00 +13°C° 0 mm 1 mps 617 mmHg 78%
    21:00 +13°C° 0 mm 1 mps 617 mmHg 82%
    22:00 +12°C° 0 mm 1 mps 617 mmHg 84%
    23:00 +11°C° 0 mm 1 mps 616 mmHg 86%

    Day after tomorrow, 22 September, Saturday

    Time Temperature Precipitation Wind Pressure Humidity
    00:00 +11°C° 0 mm 1 mps 616 mmHg 89%
    01:00 +10°C° 0 mm 1 mps 616 mmHg 89%
    02:00 +10°C° 0 mm 1 mps 616 mmHg 89%
    03:00 +10°C° 0 mm 1 mps 616 mmHg 90%
    04:00 +10°C° 0 mm 1 mps 616 mmHg 88%
    05:00 +10°C° 0 mm 1 mps 616 mmHg 87%
    06:00 +10°C° 0 mm 1 mps 616 mmHg 86%
    07:00 +12°C° 0 mm 1 mps 617 mmHg 75%
    08:00 +15°C° 0 mm 1 mps 619 mmHg 65%
    09:00 +18°C° 0 mm 1 mps 620 mmHg 55%
    10:00 +19°C° 0 mm 1 mps 620 mmHg 50%
    11:00 +21°C° 0 mm 1 mps 621 mmHg 46%
    12:00 +21°C° 0 mm 2 mps 621 mmHg 41%
    13:00 +21°C° 0 mm 2 mps 621 mmHg 42%
    14:00 +21°C° 0 mm 2 mps 620 mmHg 42%
    15:00 +21°C° 0 mm 2 mps 620 mmHg 43%
    16:00 +19°C° 0 mm 1 mps 619 mmHg 51%
    17:00 +16°C° 0 mm 1 mps 618 mmHg 59%
    18:00 +14°C° 0 mm 1 mps 617 mmHg 68%
    19:00 +14°C° 0 mm 1 mps 617 mmHg 70%
    20:00 +13°C° 0 mm 1 mps 618 mmHg 73%
    21:00 +12°C° 0 mm 1 mps 618 mmHg 75%
    22:00 +12°C° 0 mm 1 mps 617 mmHg 75%
    23:00 +12°C° 0 mm 1 mps 617 mmHg 75%

    23 September, Sunday

    Time Temperature Precipitation Wind Pressure Humidity
    00:00 +12°C° 0 mm 1 mps 617 mmHg 75%
    01:00 +12°C° 0 mm 1 mps 617 mmHg 75%
    02:00 +12°C° 0 mm 1 mps 617 mmHg 74%
    03:00 +11°C° 0 mm 1 mps 616 mmHg 73%
    04:00 +11°C° 0 mm 1 mps 616 mmHg 72%
    05:00 +11°C° 0 mm 1 mps 616 mmHg 71%
    06:00 +11°C° 0 mm 1 mps 616 mmHg 70%
    07:00 +14°C° 0 mm 1 mps 617 mmHg 61%
    08:00 +18°C° 0 mm 1 mps 618 mmHg 52%
    09:00 +21°C° 0 mm 1 mps 620 mmHg 43%
    10:00 +22°C° 0 mm 1 mps 620 mmHg 40%
    11:00 +23°C° 0 mm 2 mps 620 mmHg 37%
    12:00 +24°C° 0 mm 2 mps 620 mmHg 34%
    13:00 +24°C° 0 mm 2 mps 620 mmHg 34%
    14:00 +24°C° 0 mm 3 mps 619 mmHg 34%
    15:00 +24°C° 0 mm 3 mps 619 mmHg 35%
    16:00 +20°C° 0 mm 3 mps 618 mmHg 43%
    17:00 +18°C° 0 mm 3 mps 618 mmHg 51%
    18:00 +14°C° 0 mm 3 mps 617 mmHg 59%
    19:00 +14°C° 0 mm 2 mps 617 mmHg 65%
    20:00 +13°C° 0 mm 2 mps 617 mmHg 71%
    21:00 +12°C° 0 mm 2 mps 617 mmHg 77%
    22:00 +11°C° 0 mm 3 mps 617 mmHg 79%
    23:00 +10°C° 0 mm 3 mps 617 mmHg 80%

    24 September, Monday

    Time Temperature Precipitation Wind Pressure Humidity
    00:00 +10°C° 0 mm 3 mps 617 mmHg 82%
    01:00 +9°C° 0 mm 3 mps 617 mmHg 83%
    02:00 +9°C° 0 mm 3 mps 617 mmHg 83%
    03:00 +8°C° 0 mm 3 mps 617 mmHg 84%
    04:00 +8°C° 0 mm 3 mps 617 mmHg 83%
    05:00 +7°C° 0 mm 3 mps 616 mmHg 83%
    06:00 +5°C° 0 mm 3 mps 616 mmHg 83%
    07:00 +8°C° 0 mm 3 mps 617 mmHg 74%
    08:00 +10°C° 0 mm 3 mps 618 mmHg 66%
    09:00 +11°C° 0 mm 3 mps 619 mmHg 58%
    10:00 +12°C° 0 mm 3 mps 619 mmHg 53%
    11:00 +13°C° 0 mm 3 mps 620 mmHg 48%
    12:00 +16°C° 0 mm 3 mps 620 mmHg 42%
    13:00 +14°C° 0 mm 3 mps 620 mmHg 43%
    14:00 +14°C° 0 mm 3 mps 619 mmHg 43%
    15:00 +14°C° 0 mm 4 mps 619 mmHg 43%
    16:00 +11°C° 0 mm 3 mps 618 mmHg 48%
    17:00 +9°C° 0 mm 3 mps 617 mmHg 52%
    18:00 +7°C° 0 mm 3 mps 616 mmHg 57%
    19:00 +5°C° 0 mm 3 mps 616 mmHg 57%
    20:00 +4°C° 0 mm 3 mps 616 mmHg 57%
    21:00 +3°C° 0 mm 3 mps 616 mmHg 57%
    22:00 +4°C° 0 mm 2 mps 616 mmHg 54%
    23:00 +4°C° 0 mm 2 mps 616 mmHg 51%

    25 September, Tuesday

    Time Temperature Precipitation Wind Pressure Humidity
    00:00 +3°C° 0 mm 2 mps 616 mmHg 47%
    01:00 +3°C° 0 mm 2 mps 616 mmHg 45%
    02:00 +3°C° 0 mm 2 mps 616 mmHg 44%
    03:00 +3°C° 0 mm 2 mps 615 mmHg 42%
    04:00 +3°C° 0 mm 2 mps 616 mmHg 41%
    05:00 +3°C° 0 mm 2 mps 616 mmHg 41%
    06:00 +3°C° 0 mm 2 mps 616 mmHg 40%
    07:00 +7°C° 0 mm 1 mps 617 mmHg 37%
    08:00 +10°C° 0 mm 1 mps 619 mmHg 34%
    09:00 +13°C° 0 mm 1 mps 620 mmHg 31%
    10:00 +15°C° 0 mm 1 mps 620 mmHg 30%
    11:00 +16°C° 0 mm 1 mps 621 mmHg 29%
    12:00 +17°C° 0 mm 2 mps 621 mmHg 28%
    13:00 +17°C° 0 mm 2 mps 621 mmHg 30%
    14:00 +17°C° 0 mm 2 mps 620 mmHg 32%
    15:00 +17°C° 0 mm 2 mps 620 mmHg 34%
    16:00 +14°C° 0 mm 2 mps 619 mmHg 42%
    17:00 +12°C° 0 mm 2 mps 618 mmHg 51%
    18:00 +8°C° 0 mm 2 mps 617 mmHg 60%
    19:00 +9°C° 0 mm 1 mps 617 mmHg 64%
    20:00 +8°C° 0 mm 1 mps 617 mmHg 69%
    21:00 +7°C° 0 mm 1 mps 617 mmHg 74%
    22:00 +7°C° 0 mm 1 mps 617 mmHg 75%
    23:00 +7°C° 0 mm 1 mps 617 mmHg 76%
    Show more